| time (UTC) | temp F | wind direction | speed knots | gust knots | rain 1hr in | rain 24hr in | rain mn in | humidity % | barometer mb |
| 20260505032148 | 36 | 299 | 0.9 | 8.7 | 0.00 | 0.02 | 0.02 | 74 | 1001.7 |
| 20260505031149 | 36 | 300 | 0.9 | 6.1 | 0.00 | 0.02 | 0.02 | 73 | 1001.4 |
| 20260505030149 | 36 | 300 | 0.9 | 6.1 | 0.00 | 0.02 | 0.02 | 73 | 1001.4 |
| 20260505025148 | 37 | 209 | 2.6 | 7.8 | 0.00 | 0.02 | 0.02 | 71 | 1001.2 |
| 20260505024149 | 37 | 219 | 2.6 | 6.1 | 0.00 | 0.02 | 0.02 | 71 | 1001.0 |
| 20260505023150 | 37 | 219 | 2.6 | 6.1 | 0.00 | 0.02 | 0.02 | 71 | 1001.0 |
| 20260505022149 | 38 | 243 | 2.6 | 9.6 | 0.00 | 0.02 | 0.02 | 70 | 1000.8 |
| 20260505021149 | 38 | 243 | 2.6 | 9.6 | 0.00 | 0.02 | 0.02 | 70 | 1000.8 |
| 20260505020149 | 39 | 232 | 1.7 | 6.1 | 0.00 | 0.02 | 0.02 | 65 | 1000.6 |
| 20260505015149 | 39 | 232 | 1.7 | 6.1 | 0.00 | 0.02 | 0.02 | 65 | 1000.6 |
| 20260505014149 | 40 | 315 | 0.9 | 7.8 | 0.00 | 0.02 | 0.02 | 60 | 1000.1 |
| 20260505013150 | 40 | 315 | 0.9 | 7.8 | 0.00 | 0.02 | 0.02 | 60 | 1000.1 |
| 20260505012149 | 40 | 306 | 0.9 | 7.0 | 0.00 | 0.02 | 0.02 | 59 | 999.9 |
| 20260505011149 | 40 | 306 | 0.9 | 7.0 | 0.00 | 0.02 | 0.02 | 59 | 999.9 |
| 20260505010150 | 40 | 268 | 3.5 | 9.6 | 0.00 | 0.02 | 0.02 | 58 | 999.7 |
| 20260505005149 | 40 | 268 | 3.5 | 9.6 | 0.00 | 0.02 | 0.02 | 58 | 999.7 |
| 20260505004149 | 41 | 242 | 1.7 | 13.9 | 0.00 | 0.02 | 0.02 | 58 | 999.5 |
| 20260505003149 | 41 | 242 | 1.7 | 13.9 | 0.00 | 0.02 | 0.02 | 58 | 999.5 |
| 20260505002150 | 41 | 317 | 1.7 | 16.5 | 0.00 | 0.02 | 0.02 | 59 | 999.4 |
| 20260505001149 | 41 | 317 | 1.7 | 16.5 | 0.00 | 0.02 | 0.02 | 59 | 999.4 |
| 20260505000151 | 41 | 5 | 7.8 | 9.6 | 0.00 | 0.02 | 0.02 | 60 | 999.2 |
| 20260504234151 | 41 | 237 | 5.2 | 12.2 | 0.00 | 0.02 | 0.02 | 62 | 999.0 |
| 20260504233150 | 42 | 18 | 3.5 | 15.6 | 0.00 | 0.02 | 0.02 | 61 | 998.8 |
| 20260504232150 | 42 | 18 | 3.5 | 15.6 | 0.00 | 0.02 | 0.02 | 61 | 998.8 |
| 20260504231151 | 43 | 244 | 4.3 | 11.3 | 0.00 | 0.02 | 0.02 | 59 | 998.4 |
| 20260504230150 | 43 | 244 | 4.3 | 11.3 | 0.00 | 0.02 | 0.02 | 59 | 998.4 |
| 20260504225151 | 42 | 196 | 5.2 | 13.0 | 0.00 | 0.02 | 0.02 | 59 | 998.2 |
| 20260504224150 | 42 | 196 | 5.2 | 13.0 | 0.00 | 0.02 | 0.02 | 59 | 998.2 |
| 20260504223150 | 44 | 234 | 10.4 | 8.7 | 0.00 | 0.02 | 0.02 | 59 | 997.8 |
| 20260504222151 | 44 | 234 | 10.4 | 8.7 | 0.00 | 0.02 | 0.02 | 59 | 997.8 |
| 20260504221150 | 43 | 315 | 4.3 | 13.0 | 0.00 | 0.02 | 0.02 | 60 | 997.7 |
| 20260504220150 | 43 | 315 | 4.3 | 13.0 | 0.00 | 0.02 | 0.02 | 60 | 997.7 |
| 20260504215151 | 43 | 117 | 1.7 | 13.0 | 0.00 | 0.02 | 0.02 | 60 | 997.3 |
| 20260504214150 | 43 | 117 | 1.7 | 13.0 | 0.00 | 0.02 | 0.02 | 60 | 997.3 |
| 20260504213151 | 45 | 147 | 2.6 | 13.9 | 0.00 | 0.02 | 0.02 | 56 | 996.9 |
| 20260504212151 | 45 | 147 | 2.6 | 13.9 | 0.00 | 0.02 | 0.02 | 56 | 996.9 |
| 20260504211150 | 44 | 36 | 5.2 | 11.3 | 0.00 | 0.02 | 0.02 | 55 | 996.6 |
| 20260504210151 | 44 | 36 | 5.2 | 11.3 | 0.00 | 0.02 | 0.02 | 55 | 996.6 |
| 20260504205152 | 45 | 341 | 3.5 | 13.9 | 0.00 | 0.02 | 0.02 | 54 | 996.3 |
| 20260504204150 | 45 | 341 | 3.5 | 13.9 | 0.00 | 0.02 | 0.02 | 54 | 996.3 |
| 20260504203150 | 46 | 22 | 4.3 | 17.4 | 0.00 | 0.02 | 0.02 | 52 | 996.2 |
| 20260504202150 | 48 | 159 | 3.5 | 12.2 | 0.00 | 0.02 | 0.02 | 51 | 995.7 |
| 20260504201151 | 48 | 159 | 3.5 | 12.2 | 0.00 | 0.02 | 0.02 | 51 | 995.7 |
| 20260504200151 | 47 | 309 | 4.3 | 13.0 | 0.00 | 0.02 | 0.02 | 55 | 995.4 |
| 20260504195150 | 47 | 309 | 4.3 | 13.0 | 0.00 | 0.02 | 0.02 | 55 | 995.4 |
| 20260504194152 | 47 | 286 | 7.0 | 16.5 | 0.00 | 0.02 | 0.02 | 55 | 995.4 |
| 20260504193152 | 47 | 286 | 7.0 | 16.5 | 0.00 | 0.02 | 0.02 | 55 | 995.4 |
| 20260504192152 | 48 | 184 | 6.1 | 13.0 | 0.00 | 0.02 | 0.02 | 53 | 995.0 |
| 20260504191151 | 48 | 184 | 6.1 | 13.0 | 0.00 | 0.02 | 0.02 | 53 | 995.0 |
| 20260504190152 | 47 | 177 | 5.2 | 15.6 | 0.00 | 0.02 | 0.02 | 56 | 994.8 |
| 20260504184152 | 47 | 223 | 4.3 | 11.3 | 0.00 | 0.02 | 0.02 | 54 | 994.2 |
| 20260504182151 | 47 | 292 | 1.7 | 13.0 | 0.00 | 0.02 | 0.02 | 58 | 994.2 |
| 20260504181151 | 47 | 292 | 1.7 | 13.0 | 0.00 | 0.02 | 0.02 | 58 | 994.2 |
| 20260504180151 | 48 | 187 | 5.2 | 13.9 | 0.00 | 0.02 | 0.02 | 54 | 993.6 |
| 20260504174152 | 47 | 324 | 6.1 | 15.6 | 0.00 | 0.02 | 0.02 | 59 | 993.3 |
| 20260504173152 | 47 | 324 | 6.1 | 15.6 | 0.00 | 0.02 | 0.02 | 59 | 993.3 |
| 20260504172153 | 47 | 13 | 3.5 | 16.5 | 0.00 | 0.02 | 0.02 | 59 | 993.3 |
| 20260504171151 | 47 | 274 | 3.5 | 18.2 | 0.00 | 0.02 | 0.02 | 64 | 993.3 |
| 20260504170152 | 47 | 274 | 3.5 | 18.2 | 0.00 | 0.02 | 0.02 | 64 | 993.3 |
| 20260504160152 | 45 | 311 | 7.0 | 13.9 | 0.00 | 0.02 | 0.02 | 67 | 992.2 |
| 20260504150152 | 47 | 294 | 5.2 | 11.3 | 0.00 | 0.02 | 0.02 | 72 | 990.9 |
| 20260504141152 | 46 | 210 | 0.9 | 12.2 | 0.00 | 0.02 | 0.02 | 86 | 990.1 |
| 20260504140152 | 45 | 299 | 3.5 | 10.4 | 0.00 | 0.02 | 0.02 | 86 | 990.2 |
| 20260504130154 | 44 | 294 | 0.9 | 7.8 | 0.02 | 0.02 | 0.02 | 89 | 989.5 |
| 20260504120154 | 47 | 319 | 3.5 | 8.7 | 0.00 | 0.00 | 0.00 | 80 | 989.5 |
| 20260504110153 | 50 | 279 | 4.3 | 13.9 | 0.00 | 0.00 | 0.00 | 66 | 989.0 |
| 20260504100155 | 57 | 236 | 3.5 | 16.5 | 0.00 | 0.00 | 0.00 | 42 | 988.2 |
| 20260504081155 | 58 | 242 | 3.5 | 17.4 | 0.00 | 0.00 | 0.00 | 38 | 990.3 |
| 20260504080156 | 58 | 242 | 3.5 | 17.4 | 0.00 | 0.00 | 0.00 | 38 | 990.3 |
| 20260504070156 | 57 | 234 | 5.2 | 13.0 | 0.00 | 0.00 | 0.00 | 39 | 992.7 |
| 20260504060156 | 57 | 246 | 7.0 | 13.0 | 0.00 | 0.00 | 0.00 | 37 | 994.2 |
| 20260504050157 | 57 | 227 | 7.8 | 17.4 | 0.00 | 0.00 | 0.00 | 36 | 995.4 |
| 20260504045157 | 57 | 227 | 7.8 | 17.4 | 0.00 | 0.00 | 0.00 | 36 | 995.4 |
| 20260504044156 | 56 | 239 | 10.4 | 12.2 | 0.00 | 0.00 | 0.00 | 36 | 995.9 |
| 20260504043157 | 57 | 235 | 3.5 | 15.6 | 0.00 | 0.01 | 0.01 | 36 | 996.4 |
| 20260504042156 | 57 | 235 | 3.5 | 15.6 | 0.00 | 0.01 | 0.01 | 36 | 996.4 |
| 20260504041156 | 56 | 234 | 5.2 | 10.4 | 0.00 | 0.01 | 0.00 | 37 | 997.1 |
| 20260504040157 | 56 | 234 | 5.2 | 10.4 | 0.00 | 0.01 | 0.00 | 37 | 997.1 |
| 20260504035157 | 54 | 244 | 5.2 | 7.0 | 0.00 | 0.01 | 0.00 | 39 | 997.7 |
| 20260504034157 | 54 | 244 | 5.2 | 7.0 | 0.00 | 0.01 | 0.00 | 39 | 997.7 |
| 20260504033156 | 53 | 235 | 1.7 | 6.1 | 0.00 | 0.01 | 0.01 | 41 | 998.2 |